Wetbulb
58.68 58.87 58.83 58.95 59.13 58.96 58.95 59.36 59.39 59.56 59.38 59.58 59.73 59.71 59.70 59.76 58.71 53.94 49.70 56.84 57.92 64.44 62.57 51.22 50.06 50.19 48.87 47.13 45.57 43.23 40.26 36.67 38.42 40.04 45.74 49.21 53.76 58.43 60.15 58.82 60.40 62.02 61.36 65.63 68.68
58.22 58.22 58.41 58.59 58.87 58.91 58.85 58.85 59.02 59.16 59.06 59.27 59.36 59.57 59.42 59.43 52.44 49.72 59.48 66.63 66.48 66.33 49.92 49.21 47.85 49.49 47.07 45.15 45.22 42.89 38.34 40.43 43.33 44.97 44.51 51.68 54.59 56.16 57.47 58.86 59.22 61.66 65.56 66.86 67.69
57.92 58.16 58.26 58.34 58.42 58.52 58.45 58.69 58.79 59.03 59.22 59.11 59.26 59.12 59.29 57.97 48.05 51.69 67.53 67.52 68.03 62.69 51.90 50.86 49.77 48.55 45.29 43.47 42.72 40.87 41.53 42.78 45.26 46.44 46.99 51.31 55.98 58.86 55.60 56.15 58.88 59.30 62.47 64.72 64.69
57.27 57.64 57.98 58.03 58.11 58.16 58.24 58.21 58.40 58.88 59.24 59.08 58.79 58.99 59.38 53.72 43.83 52.88 69.94 68.23 67.32 54.80 50.46 48.61 48.26 44.85 42.14 41.89 44.14 40.33 45.08 44.49 50.66 55.59 54.51 53.65 57.63 57.15 59.29 60.21 62.50 62.79 62.84 61.84 61.38
56.71 57.18 57.43 57.56 57.63 57.83 57.87 58.17 58.36 58.47 58.59 58.54 58.77 59.29 53.64 46.08 48.66 60.33 69.29 67.17 55.24 51.35 48.88 47.43 46.08 43.77 42.74 42.39 43.23 41.06 45.52 52.22 57.32 57.45 57.08 58.14 56.47 56.81 58.65 61.15 62.39 62.78 62.66 62.04 61.14
56.68 56.73 56.73 56.86 57.22 57.62 57.60 57.52 57.32 57.55 57.80 58.47 59.00 59.19 48.98 42.56 52.00 54.95 57.24 56.11 53.25 50.12 47.98 48.32 49.09 47.32 43.38 42.33 42.10 44.96 50.12 54.48 57.32 57.19 57.93 56.21 56.45 56.80 58.00 60.39 60.05 60.35 59.87 60.42 60.54
56.52 56.45 56.25 56.47 56.85 57.37 57.39 56.77 56.49 57.10 57.83 58.50 59.48 57.73 48.21 47.01 53.94 54.52 54.24 51.08 52.52 51.57 49.49 50.10 49.94 47.44 45.17 43.20 44.26 44.92 42.90 52.30 55.91 50.65 55.81 58.10 54.05 55.09 58.97 59.08 57.88 58.76 59.94 59.74 59.09
56.17 55.84 55.83 56.19 56.67 57.07 57.37 56.89 56.59 57.24 58.03 58.67 59.68 52.09 46.13 52.36 54.98 56.64 52.52 51.57 52.17 52.17 51.94 51.52 49.21 45.97 42.90 44.39 45.87 44.42 42.76 43.29 53.31 54.93 57.26 55.99 51.32 57.39 58.30 57.48 56.73 58.33 59.59 59.75 59.59
55.67 55.26 55.44 55.91 56.45 57.02 56.91 56.29 56.98 57.71 58.39 59.42 50.90 47.68 48.47 58.34 55.22 55.00 53.85 53.28 52.30 51.92 51.00 53.56 47.44 44.08 45.38 42.37 41.74 42.01 39.15 42.72 50.39 56.48 55.39 54.60 52.94 56.64 57.83 56.46 55.46 56.68 57.74 58.53 58.69
55.35 54.95 54.99 55.64 56.09 56.20 55.58 55.76 57.35 56.96 57.76 58.48 57.20 47.98 51.01 52.51 54.92 54.98 52.93 53.78 51.93 50.26 49.30 48.69 45.04 42.84 41.99 41.89 37.63 38.77 41.82 48.86 49.07 53.15 54.40 52.88 52.36 54.80 56.98 55.95 54.85 55.13 56.30 56.79 57.17
55.09 54.73 54.78 55.05 55.56 55.19 52.40 51.86 50.88 49.81 51.18 49.84 50.71 50.94 52.68 55.02 55.77 51.85 52.39 51.00 49.26 47.69 42.86 45.37 43.05 39.90 41.13 43.20 43.74 45.83 49.63 48.90 51.64 53.20 51.65 51.11 51.60 52.94 55.13 54.85 53.48 53.48 53.99 54.96 56.18
54.55 54.51 54.66 54.89 55.15 54.70 50.53 50.67 52.47 52.63 49.06 52.90 53.13 52.92 54.70 54.18 52.50 53.55 52.35 47.52 47.32 43.79 45.45 44.25 41.23 44.44 46.69 47.22 45.15 46.87 47.02 46.16 49.31 52.23 51.23 50.58 50.87 52.49 53.79 53.71 54.42 54.52 54.05 54.09 55.65
53.66 53.85 54.34 54.84 54.05 50.76 49.69 52.09 54.67 52.17 47.27 51.59 53.55 53.44 53.53 54.59 51.47 50.51 50.82 48.53 46.70 45.45 44.45 42.92 45.04 48.78 47.70 44.94 44.64 41.32 40.95 45.16 46.44 50.25 51.06 49.34 47.79 49.79 52.74 53.60 53.93 54.19 54.85 54.75 53.95
53.29 53.54 53.86 53.79 51.13 49.11 50.37 51.96 51.90 52.99 45.98 50.55 52.02 54.64 53.64 50.80 49.35 52.89 51.74 49.57 48.49 44.87 45.79 45.83 49.09 47.77 45.60 45.30 44.14 40.90 48.66 50.12 48.87 45.57 41.52 47.24 39.07 47.61 49.88 49.88 51.32 51.36 51.96 52.43 53.34
53.17 53.60 53.62 52.41 46.22 50.59 53.08 52.55 51.49 54.42 34.94 50.82 48.66 52.69 49.64 48.65 49.18 51.27 52.22 50.89 47.03 47.56 47.74 45.26 46.91 47.01 45.97 45.85 46.74 43.83 51.39 50.08 48.64 37.78 40.39 42.98 39.64 46.68 49.04 47.13 48.99 50.48 51.27 51.83 52.07
53.00 53.35 52.80 51.47 48.10 50.46 52.29 52.42 53.36 44.90 37.46 48.38 48.67 46.77 46.35 48.06 48.64 50.42 51.92 53.40 51.68 50.10 49.83 47.56 51.68 49.70 48.18 48.96 47.86 47.47 43.93 40.38 38.00 35.84 32.08 38.72 39.88 43.03 46.17 48.57 49.41 50.72 50.56 50.03 47.89
52.59 52.58 50.35 52.07 48.63 50.61 53.11 52.92 43.73 39.22 49.49 47.17 45.61 46.63 45.53 46.04 47.88 49.82 49.60 47.52 43.80 41.25 42.06 46.93 46.58 49.09 49.23 45.38 46.48 44.45 38.32 32.49 31.82 31.40 29.57 41.95 40.01 45.37 48.94 50.30 50.59 49.66 48.71 47.43 48.73
51.68 50.99 50.55 53.15 50.76 52.43 52.71 47.80 38.11 46.05 46.70 50.21 49.30 48.18 47.29 49.14 49.16 50.33 47.90 45.44 48.85 45.03 41.63 40.61 39.73 46.60 49.45 44.79 41.72 39.56 37.90 33.22 28.10 28.50 30.67 41.96 39.19 43.26 49.53 50.58 49.68 49.40 47.07 48.13 47.58
50.53 51.77 50.95 54.11 54.50 52.81 50.01 41.05 41.86 46.24 49.09 48.49 48.20 45.21 45.66 49.06 48.70 48.58 46.67 46.85 48.23 47.42 41.72 40.04 41.82 48.13 49.16 47.66 45.65 42.34 38.78 39.12 34.75 32.95 32.79 38.56 43.58 47.45 48.49 48.39 48.78 47.13 46.86 46.82 46.76
52.49 51.28 52.28 54.25 53.24 51.66 45.98 42.41 45.69 50.93 49.63 49.23 43.65 46.20 43.68 46.20 46.73 46.23 45.74 49.03 49.34 48.92 47.79 44.35 39.08 46.59 48.01 47.98 46.66 44.48 44.52 37.18 35.40 30.16 28.53 36.20 37.29 38.42 45.21 45.92 47.76 47.54 47.00 47.24 46.50
52.00 49.82 53.78 53.50 51.76 45.85 40.51 42.90 47.82 50.51 50.79 48.35 45.73 45.83 45.92 45.18 47.05 45.41 44.95 49.08 50.53 50.35 48.52 43.56 41.60 42.55 45.03 41.97 39.97 41.33 39.99 38.61 36.32 34.16 29.26 28.65 33.08 45.55 45.02 47.02 48.16 48.33 48.03 47.06 47.37
48.26 46.32 54.33 52.32 46.02 41.18 42.72 47.05 49.37 48.81 49.98 49.82 48.17 47.46 45.86 46.31 45.63 44.44 44.48 47.02 52.13 49.62 44.53 44.49 39.32 36.16 39.06 45.32 47.04 44.21 40.28 38.02 33.29 32.68 34.70 32.77 32.51 45.34 45.83 47.58 47.43 47.99 47.86 48.00 46.25
47.16 47.73 53.84 53.08 42.66 42.00 45.71 48.76 49.59 49.02 50.09 48.04 48.98 48.53 49.15 45.60 42.51 45.71 46.46 52.26 52.75 50.57 45.26 43.68 38.94 34.08 37.01 40.07 42.95 42.92 44.77 41.10 38.39 36.31 33.68 31.46 33.48 45.59 48.56 47.87 48.13 46.78 44.10 44.51 44.19
47.28 45.27 47.62 46.94 45.40 43.52 42.30 44.48 46.39 51.46 50.55 50.28 48.56 48.98 47.36 45.53 46.36 44.55 47.20 51.58 53.48 51.47 53.83 49.64 39.61 36.87 33.00 36.77 40.12 41.31 43.49 43.61 37.83 33.88 34.87 36.83 39.17 42.78 44.14 45.43 45.67 42.08 43.48 43.01 43.52
45.62 43.43 44.64 40.96 44.06 42.79 41.41 44.60 45.71 45.82 50.55 50.38 47.30 47.54 46.10 42.75 43.34 44.34 47.65 48.37 50.88 51.69 47.58 43.21 38.38 40.27 42.43 45.25 45.35 43.14 41.93 41.61 40.78 40.53 36.28 38.61 37.60 40.64 42.30 42.68 44.20 42.43 43.33 43.39 43.19
43.62 43.31 44.83 44.90 44.88 43.20 42.85 43.78 45.83 48.84 47.97 47.19 45.97 47.44 46.26 42.89 42.63 41.85 45.49 43.91 43.36 47.09 43.83 42.85 38.06 40.13 40.44 44.60 43.90 40.74 42.97 43.02 42.50 41.97 39.86 39.13 37.20 40.82 41.99 42.13 40.44 40.56 42.39 41.65 42.54
45.31 46.06 44.86 44.93 44.69 42.56 43.99 45.63 47.21 48.84 51.02 50.98 49.33 46.88 45.19 46.47 48.77 46.93 46.72 45.77 45.40 43.37 42.49 41.65 39.38 36.76 33.98 42.19 41.17 36.13 41.68 41.76 40.97 41.33 40.35 35.45 39.06 41.28 39.86 39.88 39.39 39.58 40.29 41.46 40.84
MSLP
1016.14 1016.08 1015.76 1015.53 1015.47 1015.44 1015.25 1015.31 1015.21 1015.00 1014.79 1014.47 1014.10 1013.77 1013.59 1013.27 1012.78 1012.51 1011.44 1009.35 1009.19 1009.11 1009.06 1009.29 1009.49 1009.68 1009.93 1010.35 1010.54 1011.11 1012.08 1012.43 1011.61 1011.14 1010.16 1010.06 1010.97 1011.42 1011.80 1012.37 1013.67 1014.26 1014.51 1015.20 1015.77
1016.14 1015.88 1015.61 1015.35 1015.30 1015.20 1015.10 1015.05 1014.96 1014.80 1014.59 1014.20 1013.90 1013.64 1013.41 1013.25 1012.87 1011.48 1008.88 1008.84 1008.87 1008.97 1009.01 1009.31 1009.52 1009.66 1010.06 1010.36 1010.69 1011.23 1012.15 1011.40 1010.37 1010.51 1010.15 1011.64 1012.01 1012.83 1013.24 1013.81 1015.32 1015.38 1016.01 1016.31 1016.74
1016.06 1015.79 1015.51 1015.28 1015.17 1014.91 1014.84 1014.84 1014.71 1014.59 1014.21 1014.00 1013.76 1013.46 1013.23 1013.23 1012.45 1009.68 1008.38 1008.37 1008.67 1008.79 1008.90 1009.15 1009.32 1009.54 1009.98 1010.22 1010.62 1010.98 1011.09 1010.49 1010.41 1010.41 1010.39 1012.25 1013.47 1014.20 1014.26 1015.46 1016.08 1016.52 1016.89 1017.32 1017.75
1015.94 1015.58 1015.32 1015.13 1014.85 1014.72 1014.66 1014.67 1014.47 1014.24 1014.03 1013.86 1013.64 1013.35 1013.04 1012.91 1011.38 1009.08 1008.46 1008.37 1008.56 1008.70 1008.99 1009.18 1009.32 1009.79 1010.16 1010.21 1010.31 1010.74 1010.35 1010.96 1011.29 1011.73 1011.91 1013.57 1015.52 1016.25 1016.22 1017.17 1017.26 1017.62 1018.08 1018.63 1019.15
1015.61 1015.28 1015.11 1014.90 1014.64 1014.54 1014.46 1014.38 1014.29 1014.12 1013.90 1013.74 1013.63 1013.30 1012.82 1012.11 1010.02 1008.87 1008.62 1008.78 1008.75 1008.89 1009.05 1009.23 1009.47 1010.00 1009.99 1009.95 1010.15 1010.53 1011.33 1012.62 1013.22 1012.93 1014.23 1015.23 1016.52 1017.51 1018.01 1018.22 1018.21 1018.43 1018.98 1019.46 1020.07
1015.49 1015.22 1014.96 1014.67 1014.34 1014.18 1014.27 1014.20 1014.08 1013.93 1013.73 1013.73 1013.63 1013.34 1012.89 1011.07 1008.50 1008.52 1008.59 1008.69 1008.68 1008.81 1009.01 1009.12 1009.15 1009.32 1009.63 1009.83 1010.03 1010.61 1012.08 1013.63 1014.35 1014.23 1015.54 1015.52 1017.50 1017.52 1019.36 1019.25 1019.31 1019.62 1020.12 1020.42 1020.58
1015.28 1015.14 1014.67 1014.31 1014.02 1014.06 1014.09 1013.97 1013.83 1013.65 1013.70 1013.70 1013.54 1013.23 1012.44 1009.84 1008.26 1008.42 1008.38 1008.29 1008.28 1008.52 1008.72 1008.78 1008.72 1009.09 1009.16 1009.54 1009.93 1010.68 1012.42 1013.56 1014.81 1015.22 1015.33 1015.06 1017.96 1019.45 1020.06 1020.03 1020.20 1020.53 1020.72 1021.09 1021.44
1015.43 1014.82 1014.54 1014.15 1013.94 1013.88 1013.72 1013.60 1013.51 1013.57 1013.61 1013.44 1013.33 1012.92 1011.40 1008.62 1008.28 1008.04 1008.05 1008.06 1008.03 1008.22 1008.27 1008.05 1008.41 1008.88 1009.30 1009.54 1010.34 1011.19 1012.73 1014.15 1015.62 1015.10 1015.52 1015.38 1019.35 1020.16 1020.55 1020.70 1020.99 1021.14 1021.32 1021.72 1021.95
1015.18 1014.74 1014.32 1013.99 1013.69 1013.57 1013.52 1013.47 1013.41 1013.45 1013.27 1013.18 1013.17 1012.54 1010.33 1008.20 1007.92 1007.55 1007.50 1007.70 1007.76 1007.77 1007.91 1008.13 1008.61 1009.60 1009.81 1010.52 1011.67 1012.92 1014.48 1015.67 1016.17 1015.91 1015.84 1016.34 1019.74 1020.89 1021.14 1021.30 1021.92 1022.00 1022.12 1022.23 1022.59
1014.97 1014.44 1014.10 1013.77 1013.55 1013.45 1013.29 1013.23 1013.28 1013.32 1013.23 1013.08 1012.68 1012.46 1009.80 1008.50 1007.80 1007.42 1007.46 1007.60 1007.88 1008.06 1008.21 1008.56 1009.64 1010.41 1011.11 1011.66 1013.13 1014.03 1015.70 1017.16 1017.55 1018.52 1017.62 1018.89 1020.38 1021.16 1021.57 1022.00 1022.60 1022.80 1022.91 1023.15 1023.36
1014.66 1014.34 1013.77 1013.53 1013.21 1013.22 1013.16 1013.32 1013.52 1013.15 1012.59 1011.68 1011.15 1010.67 1009.14 1008.22 1007.69 1007.33 1007.19 1007.58 1007.94 1008.55 1009.19 1009.56 1010.46 1011.49 1011.67 1011.98 1012.71 1014.25 1016.03 1017.45 1018.60 1018.91 1019.21 1020.32 1020.94 1021.66 1021.99 1022.51 1023.30 1023.55 1023.64 1023.81 1024.09
1014.28 1013.85 1013.53 1013.37 1013.05 1013.11 1013.26 1012.76 1011.91 1011.70 1011.42 1010.42 1010.21 1009.80 1008.75 1008.32 1007.96 1007.38 1007.10 1007.73 1008.29 1009.01 1009.57 1010.21 1010.96 1011.19 1011.32 1012.01 1012.97 1014.57 1016.37 1018.25 1019.19 1019.43 1019.82 1020.88 1021.53 1022.17 1022.51 1022.76 1023.20 1023.58 1024.04 1024.55 1024.80
1014.13 1013.46 1013.27 1013.16 1012.96 1013.04 1012.72 1011.76 1011.11 1011.29 1011.45 1010.03 1009.39 1008.68 1007.97 1008.07 1007.74 1007.37 1007.36 1007.68 1008.56 1009.31 1010.10 1010.69 1011.60 1011.25 1011.22 1012.16 1012.97 1014.46 1015.70 1017.64 1018.73 1020.18 1020.83 1021.03 1022.18 1022.80 1023.17 1023.28 1023.62 1024.13 1024.59 1025.05 1025.40
1013.98 1013.44 1013.08 1012.81 1013.12 1012.49 1011.92 1011.19 1010.90 1010.99 1011.19 1009.89 1008.73 1007.56 1007.48 1007.51 1007.51 1007.09 1007.22 1007.75 1008.62 1009.75 1010.39 1011.29 1011.47 1011.56 1011.72 1012.14 1012.81 1014.17 1015.26 1016.66 1018.30 1019.38 1020.76 1021.09 1022.41 1022.87 1023.26 1023.61 1023.89 1024.38 1024.87 1025.35 1025.68
1013.84 1013.46 1013.04 1012.91 1012.65 1012.10 1011.42 1010.91 1010.79 1010.78 1011.01 1009.50 1008.05 1007.00 1007.35 1007.85 1008.00 1007.61 1007.44 1007.79 1008.98 1010.05 1010.65 1011.60 1011.62 1011.65 1011.87 1012.27 1012.57 1014.07 1015.19 1016.61 1018.05 1019.00 1020.11 1021.50 1022.02 1022.46 1023.01 1023.41 1023.83 1024.42 1025.01 1025.53 1025.91
1013.66 1013.28 1013.02 1012.82 1012.62 1011.44 1011.02 1010.79 1010.94 1011.55 1010.64 1009.20 1008.16 1007.84 1008.16 1008.36 1008.47 1008.29 1008.32 1008.71 1009.67 1010.45 1011.24 1011.73 1011.45 1011.73 1011.96 1012.36 1012.90 1013.77 1015.27 1016.96 1018.25 1019.21 1020.57 1021.24 1021.82 1022.40 1022.72 1022.87 1023.68 1024.58 1025.20 1025.74 1026.26
1013.21 1012.87 1012.86 1012.32 1012.19 1011.31 1011.07 1011.35 1012.10 1011.82 1010.70 1010.08 1009.23 1008.94 1009.23 1009.55 1009.47 1009.57 1010.25 1010.95 1011.42 1012.03 1012.59 1012.52 1012.54 1012.34 1012.26 1012.81 1013.32 1014.27 1015.87 1017.44 1018.91 1019.85 1021.35 1021.62 1021.94 1022.15 1022.31 1022.60 1023.13 1024.17 1025.05 1025.73 1026.34
1012.91 1012.62 1012.57 1012.11 1011.89 1011.62 1011.79 1012.47 1012.44 1011.80 1010.97 1010.36 1010.15 1010.03 1010.45 1010.51 1010.89 1011.09 1011.72 1012.56 1012.59 1012.90 1013.62 1013.66 1013.53 1013.41 1013.41 1013.92 1014.51 1015.52 1016.48 1018.23 1019.72 1021.06 1021.82 1021.84 1022.16 1022.05 1022.23 1022.88 1023.64 1024.53 1025.50 1026.01 1026.36
1012.49 1012.47 1012.67 1011.97 1011.63 1011.78 1012.62 1013.21 1012.90 1012.06 1011.30 1010.93 1010.92 1011.42 1011.60 1011.47 1011.71 1012.21 1013.24 1013.83 1013.99 1013.81 1014.04 1014.46 1014.58 1014.30 1014.21 1014.47 1014.87 1016.02 1017.15 1018.37 1019.63 1021.04 1022.02 1022.64 1022.62 1022.25 1022.85 1023.77 1024.42 1024.96 1025.52 1026.02 1026.31
1013.53 1013.32 1012.89 1011.96 1011.71 1012.31 1013.38 1013.79 1012.99 1012.16 1011.47 1011.31 1012.00 1012.50 1012.97 1012.88 1013.02 1013.36 1014.35 1014.59 1014.54 1014.38 1014.22 1015.13 1015.34 1015.32 1015.16 1015.20 1015.77 1016.51 1017.70 1018.87 1020.14 1021.73 1022.65 1023.09 1023.12 1023.06 1023.42 1023.95 1024.71 1025.07 1025.39 1025.94 1026.13
1014.13 1013.89 1012.60 1012.02 1012.01 1013.45 1014.80 1014.27 1013.27 1012.17 1011.84 1012.10 1012.75 1013.35 1013.87 1014.14 1014.23 1014.83 1015.57 1015.24 1015.29 1015.04 1014.99 1015.83 1016.29 1016.64 1016.40 1017.41 1017.83 1017.94 1018.84 1020.17 1021.38 1022.58 1023.33 1023.89 1023.74 1023.86 1023.97 1024.01 1024.39 1024.73 1025.28 1025.75 1026.11
1015.03 1014.99 1012.94 1012.32 1013.70 1015.46 1015.44 1014.59 1013.57 1012.96 1012.48 1012.85 1013.38 1014.03 1014.63 1014.89 1015.60 1015.79 1016.09 1016.15 1015.78 1015.85 1016.40 1017.10 1017.78 1018.34 1018.68 1018.62 1018.74 1019.29 1020.25 1021.03 1022.28 1023.37 1023.93 1024.21 1024.40 1024.45 1024.43 1024.39 1024.71 1025.14 1025.45 1025.83 1026.32
1016.98 1016.03 1013.51 1013.18 1015.72 1016.57 1015.68 1014.84 1014.12 1013.63 1014.00 1014.02 1014.74 1015.07 1015.47 1016.07 1016.51 1016.45 1016.30 1016.16 1016.10 1016.53 1017.21 1017.66 1019.40 1020.02 1019.78 1019.98 1019.87 1020.59 1021.26 1021.84 1022.66 1023.36 1024.29 1024.77 1024.89 1024.68 1024.78 1024.98 1025.30 1025.49 1025.95 1026.43 1026.84
1017.85 1017.77 1016.62 1016.57 1017.83 1017.31 1016.78 1015.86 1015.03 1014.54 1014.91 1015.25 1015.73 1015.66 1016.17 1016.77 1016.76 1016.95 1016.89 1016.78 1016.70 1017.31 1017.80 1018.21 1020.51 1021.26 1021.68 1021.51 1021.58 1021.86 1022.21 1022.31 1022.83 1023.81 1024.49 1024.90 1025.06 1025.17 1025.30 1025.54 1025.89 1026.45 1026.76 1027.11 1027.34
1019.15 1020.34 1020.00 1019.84 1018.81 1018.38 1017.44 1016.62 1015.94 1015.69 1015.63 1015.93 1016.42 1016.75 1016.91 1017.51 1017.47 1017.54 1017.29 1017.21 1017.35 1017.78 1018.34 1019.47 1021.63 1022.07 1022.34 1022.19 1022.23 1022.60 1022.76 1022.90 1023.34 1024.00 1024.54 1025.05 1025.40 1025.72 1025.92 1026.11 1026.41 1026.89 1027.13 1027.44 1027.69
1020.86 1021.08 1020.70 1020.41 1019.79 1018.87 1018.28 1017.50 1016.64 1016.65 1016.57 1016.75 1017.20 1017.38 1017.25 1017.71 1017.84 1017.85 1017.75 1017.87 1018.20 1018.61 1019.64 1020.78 1022.37 1022.86 1023.39 1023.13 1022.95 1023.06 1023.11 1023.23 1023.58 1024.06 1024.59 1025.09 1025.65 1026.12 1026.51 1026.81 1027.40 1027.69 1027.84 1028.12 1028.27
1021.91 1021.60 1021.20 1021.09 1020.33 1019.69 1019.31 1018.19 1017.43 1017.08 1017.42 1017.31 1017.56 1017.72 1017.84 1017.88 1017.84 1017.98 1018.05 1018.38 1018.83 1019.47 1020.61 1021.68 1023.00 1023.85 1024.28 1023.92 1023.57 1023.51 1023.34 1023.39 1023.73 1024.21 1024.80 1025.34 1025.76 1026.42 1027.20 1027.68 1028.14 1028.38 1028.49 1028.67 1028.85
Wind_Speed
9 10 9 9 8 9 9 9 10 9 9 11 12 12 12 12 14 2 6 7 5 6 3 1 1 1 3 3 2 3 5 2 5 5 7 2 5 6 6 10 7 6 4 13 15
10 10 10 9 9 9 9 9 10 10 9 11 12 11 11 11 3 5 9 9 6 8 3 2 2 3 4 2 2 5 4 7 6 5 3 16 11 6 6 8 10 16 15 15 12
10 10 10 9 10 9 9 10 10 10 10 11 11 11 11 6 4 4 1 10 9 6 4 2 2 3 4 2 2 3 5 3 5 4 3 8 19 11 2 10 7 15 15 12 11
9 10 10 10 10 10 9 11 11 10 10 11 10 12 13 2 2 3 4 9 8 5 2 2 5 5 3 2 1 1 5 3 13 13 9 8 7 22 20 11 14 14 13 12 12
10 11 11 11 10 10 10 11 11 10 10 9 10 11 3 4 8 3 6 6 4 3 2 2 3 3 1 2 1 3 7 12 13 27 26 27 23 15 18 19 18 16 14 12 13
11 11 12 11 9 9 10 10 10 9 9 8 9 10 1 3 1 3 7 4 3 3 3 3 2 4 2 3 2 4 13 12 17 21 17 26 20 6 14 17 18 17 13 12 12
12 11 12 12 10 10 10 10 8 8 8 7 7 2 3 12 4 2 6 4 4 3 2 5 5 4 3 5 1 4 9 9 17 2 5 13 24 15 13 14 16 13 11 11 12
12 12 12 11 10 10 9 8 7 7 6 6 3 1 7 5 3 9 4 3 5 5 4 3 5 2 1 3 6 7 7 6 13 6 8 9 11 15 15 15 14 12 10 11 13
12 12 11 10 9 9 8 7 7 7 3 3 1 3 10 7 5 2 3 4 2 2 3 2 3 3 5 5 6 10 4 7 7 17 4 10 11 13 15 15 13 12 11 10 9
13 12 12 10 8 8 9 4 1 2 2 3 1 3 5 4 5 3 1 3 1 5 6 7 6 4 6 6 1 2 7 9 8 10 23 21 18 14 14 16 11 11 11 11 10
15 12 12 11 9 8 3 2 4 3 1 5 4 4 6 6 3 2 3 3 2 6 3 5 8 3 2 4 4 9 11 13 7 3 12 14 14 12 11 13 8 8 10 10 10
17 14 12 10 9 4 0 2 2 3 7 5 5 6 6 3 2 3 4 1 4 3 2 8 6 3 7 9 11 11 14 4 6 10 9 12 12 9 7 7 8 8 10 7 6
18 17 13 10 3 3 1 2 2 1 2 8 5 4 4 6 1 4 4 2 4 6 7 8 4 2 9 4 8 3 6 6 8 10 10 14 7 4 5 8 8 9 8 7 5
18 17 14 13 1 1 3 1 5 6 6 6 2 5 2 1 4 3 3 2 6 5 5 6 6 4 3 4 3 6 7 14 22 6 6 2 4 5 5 2 4 5 5 3 3
19 15 12 5 1 2 4 7 1 5 5 3 2 0 2 4 1 7 3 6 3 2 7 2 2 6 8 3 1 3 14 14 7 3 6 2 4 5 8 5 3 2 3 1 1
19 14 8 1 1 5 7 4 4 8 2 4 3 2 3 5 5 5 6 9 3 8 6 2 3 4 1 3 4 4 6 4 4 3 3 2 4 5 6 5 8 5 4 4 1
21 13 3 1 1 6 5 5 7 4 4 7 3 3 3 4 6 6 5 7 3 4 4 6 5 6 6 5 4 8 7 3 4 6 3 4 3 0 4 6 8 9 6 4 2
22 6 3 2 5 6 4 7 4 3 2 3 4 4 5 4 6 6 4 6 6 5 4 3 6 6 8 3 2 3 4 5 3 2 2 5 2 4 4 2 5 4 5 3 3
15 3 3 5 3 3 7 5 4 2 3 4 4 7 7 5 4 5 4 4 3 4 5 3 2 0 6 5 4 6 5 3 5 1 4 1 2 4 3 2 2 3 4 4 5
3 3 3 9 3 6 7 3 1 3 5 4 4 4 5 7 4 5 5 4 5 7 1 2 3 3 4 7 8 6 1 5 5 3 3 3 4 4 6 6 3 3 5 4 5
4 5 4 7 4 8 4 3 3 4 1 5 2 4 3 3 5 5 5 4 6 6 9 3 3 5 4 6 2 7 5 5 4 3 2 0 5 6 5 4 7 4 3 3 1
3 4 4 4 6 1 1 1 5 4 8 6 5 5 3 5 6 4 3 2 8 3 3 3 4 2 3 3 4 4 2 3 5 4 2 3 4 4 4 4 4 4 3 4 5
3 2 4 4 4 4 6 4 4 7 7 5 6 6 5 4 5 2 3 6 9 6 2 1 5 4 8 6 6 6 5 3 4 3 1 2 4 2 3 5 5 5 6 6 4
4 4 6 6 1 2 4 5 4 6 5 5 3 4 6 8 6 3 2 5 4 4 8 7 4 5 5 5 2 4 5 3 4 4 1 0 4 4 4 4 4 6 7 5 4
5 0 3 3 5 5 2 2 3 4 4 7 6 6 2 4 3 3 2 4 4 8 6 6 4 3 5 4 4 3 4 8 6 2 3 2 2 3 3 3 7 6 6 5 3
4 2 4 1 3 4 6 5 1 3 4 4 8 4 5 5 1 2 2 2 1 6 5 4 2 2 4 3 5 5 3 3 4 2 3 2 2 2 3 6 6 5 6 6 5
3 2 3 5 4 3 3 4 3 2 5 6 4 4 7 0 4 1 1 1 3 4 2 4 5 3 1 1 6 3 2 1 1 1 1 2 2 5 3 5 4 4 5 4 5
Wind_Direction
312 303 307 309 307 305 311 304 303 306 308 302 304 312 319 317 310 128 247 211 176 164 145 47 138 360 70 96 105 126 58 280 233 172 274 103 68 9 15 85 46 355 65 120 132
314 308 306 309 307 303 304 302 301 302 301 301 304 317 317 323 300 243 251 163 132 166 81 67 338 348 53 79 38 89 100 235 209 154 306 54 62 355 63 57 66 79 97 105 120
312 307 304 304 296 302 299 297 296 294 301 299 311 318 309 315 307 257 26 183 190 173 120 139 88 75 61 11 153 159 198 222 309 197 54 100 50 19 13 39 62 122 115 103 104
317 314 307 303 302 297 293 287 290 296 295 299 320 310 307 231 131 56 150 146 156 136 95 60 18 52 60 338 31 290 260 323 346 26 54 59 75 62 56 72 96 89 84 68 50
330 325 313 304 298 290 289 289 284 286 289 311 317 314 329 359 254 152 123 114 106 116 105 55 54 114 286 271 357 192 43 59 85 74 79 83 70 75 65 75 77 79 64 61 44
330 324 314 304 300 298 288 280 282 287 303 312 309 306 341 337 251 51 133 140 146 155 129 163 178 195 243 260 133 41 87 94 64 80 98 85 60 65 55 76 73 72 66 57 59
334 320 320 316 313 297 286 282 289 301 300 299 302 309 81 240 308 8 169 202 176 175 245 201 177 87 301 332 208 95 111 107 28 287 161 121 56 82 80 73 74 70 71 60 57
324 326 318 318 313 299 292 294 295 284 281 272 265 90 252 246 280 311 157 254 217 223 231 172 181 114 102 291 26 50 64 65 11 3 4 96 100 85 80 72 70 70 76 70 69
331 324 323 325 324 310 299 294 275 254 213 158 129 88 279 305 316 309 173 235 346 309 256 126 94 84 13 51 22 17 61 26 23 13 79 78 105 86 86 83 69 67 67 71 64
338 332 323 333 325 317 303 245 151 235 182 201 259 3 283 306 288 270 187 124 258 332 2 42 50 61 29 66 144 94 109 55 68 29 77 83 89 87 85 83 75 71 63 64 65
343 335 330 329 321 332 346 63 13 0 138 216 229 238 264 284 288 266 137 96 73 48 23 352 65 95 190 89 114 79 89 112 135 71 77 96 99 98 95 98 88 80 79 69 45
339 339 338 325 308 313 190 78 144 205 318 246 257 270 267 245 308 300 126 131 59 27 30 25 39 264 119 83 91 104 111 92 57 91 87 101 90 80 80 83 95 81 70 65 53
338 335 337 332 330 117 203 247 115 52 119 299 208 232 241 146 252 287 139 105 87 48 39 96 339 97 96 64 86 103 134 178 136 91 86 125 98 107 96 86 80 71 72 58 48
340 333 331 324 28 264 293 355 303 177 63 290 294 290 152 218 337 243 191 79 37 126 85 70 1 48 76 92 105 60 118 129 139 118 185 169 133 175 158 127 106 88 80 45 18
337 330 327 344 200 48 301 340 126 56 54 285 264 289 49 119 319 345 22 35 57 60 98 169 95 39 52 9 76 95 144 150 155 101 115 153 104 143 164 209 201 126 112 242 251
333 329 321 166 53 259 325 321 48 42 25 351 322 15 35 17 353 336 35 37 82 69 47 37 339 57 283 68 50 112 120 89 92 134 62 191 147 191 184 192 175 171 208 200 255
332 326 212 1 218 316 333 43 42 99 323 329 331 66 100 338 1 33 44 27 51 71 35 14 356 329 45 31 11 51 50 337 354 1 249 311 62 335 176 178 186 188 186 167 211
330 323 212 241 301 337 49 50 80 292 302 353 27 40 71 4 0 18 63 27 9 58 85 113 352 17 325 54 284 58 117 142 270 236 236 353 146 226 165 100 91 101 122 173 230
321 359 41 315 319 58 71 66 192 239 294 6 43 51 349 14 108 77 45 29 17 5 107 112 99 105 52 25 56 325 31 191 114 68 92 268 253 276 158 131 83 151 141 214 229
44 36 324 323 28 59 74 206 234 220 333 61 87 41 38 337 57 72 20 349 341 28 156 114 89 17 12 37 14 84 261 10 9 314 288 247 283 274 216 214 213 220 189 233 247
47 52 270 342 58 47 112 237 296 327 125 60 80 53 66 2 33 42 355 8 12 349 60 38 85 301 62 36 323 351 12 40 110 103 192 267 269 360 13 148 189 214 172 222 213
67 51 317 17 52 42 85 298 313 343 21 56 82 67 55 44 38 67 71 284 334 301 56 348 121 48 92 317 45 68 48 107 113 284 77 147 293 342 9 53 113 84 109 93 91
68 273 323 69 76 347 317 357 49 31 29 36 51 41 52 49 91 64 52 340 10 49 69 103 22 29 349 348 3 43 355 56 100 79 64 65 298 15 30 65 49 108 93 91 89
68 34 336 43 38 80 5 358 54 33 65 65 31 73 60 28 5 109 85 12 19 70 51 86 76 135 190 230 197 24 354 6 87 72 295 23 333 354 8 20 65 85 83 78 88
28 125 188 356 350 1 4 351 48 24 39 34 31 45 100 60 31 58 24 12 35 352 40 80 87 70 34 58 70 80 46 39 60 11 89 301 40 354 349 20 102 112 116 102 55
85 76 1 84 299 4 1 351 101 132 26 17 104 40 76 103 170 118 153 32 2 14 54 20 130 113 35 51 78 74 40 54 36 51 82 57 283 140 113 96 77 86 88 57 25
337 347 104 308 1 56 316 295 334 83 47 63 139 92 57 145 209 268 275 103 30 138 101 68 118 84 230 252 1 3 4 53 66 60 1 276 264 153 99 86 86 78 72 43 16